• Processing (Info)

  • MPEC 2020-K187 : 2020 KF5

    The following Minor Planet Electronic Circular may be linked-to from your own Web pages, but must not otherwise be redistributed electronically.

    A form allowing access to any MPEC is at the bottom of this page.


    Read MPEC 2020-K186 Read MPEC 2020-K188


    M.P.E.C. 2020-K187                                 Issued 2020 May 27, 01:31 UT
    
         The Minor Planet Electronic Circulars contain information on unusual
             minor planets and routine data on comets.  They are published
        on behalf of Division F of the International Astronomical Union by the
              Minor Planet Center, Smithsonian Astrophysical Observatory,
                              Cambridge, MA 02138, U.S.A.
    
                 Prepared using the Tamkin Foundation Computer Network
    
                                  MPC@CFA.HARVARD.EDU
                URL https://www.minorplanetcenter.net/    ISSN 1523-6714
    
                                    2020 KF5                                 
    
    
    Observations:
         K20K05F* C2020 05 26.32781 15 21 52.63 -19 15 06.4          21.4 GVEK187G96
         K20K05F  C2020 05 26.33309 15 21 53.53 -19 14 13.5          21.0 GVEK187G96
         K20K05F  C2020 05 26.33839 15 21 54.43 -19 13 20.8          20.4 GVEK187G96
         K20K05F  C2020 05 26.34369 15 21 55.33 -19 12 26.9          20.3 GVEK187G96
         K20K05F  C2020 05 26.37036 15 22 00.40 -19 07 50.1          20.6 GVEK187I52
         K20K05F  C2020 05 26.37204 15 22 00.71 -19 07 31.2          20.2 GVEK187I52
         K20K05F  C2020 05 26.37373 15 22 01.11 -19 07 14.0          19.8 GVEK187I52
         K20K05F  C2020 05 26.37541 15 22 01.44 -19 06 55.9          20.4 GVEK187I52
         K20K05F KC2020 05 26.54390915 23 28.20 -18 22 56.6          20.4 GVEK187474
         K20K05F KC2020 05 26.54514815 23 28.52 -18 22 41.3          20.5 GVEK187474
         K20K05F KC2020 05 26.54639015 23 28.85 -18 22 25.9          20.4 GVEK187474
         K20K05F KC2020 05 26.54763115 23 29.14 -18 22 10.2          20.3 GVEK187474
         K20K05F bC2020 05 26.92399315 27 23.58 -17 07 44.2          20.1 GVEK187L01
         K20K05F bC2020 05 26.92677915 27 24.81 -17 06 54.9          19.9 GVEK187L01
         K20K05F bC2020 05 26.92930815 27 25.90 -17 06 10.1          20.3 GVEK187L01
         K20K05F IC2020 05 26.99468415 28 09.30 -16 46 36.7          19.9 GVEK187J95
         K20K05F KC2020 05 26.99835315 28 11.29 -16 45 24.3          20.1 GVEK187J95
         K20K05F KC2020 05 27.01506015 28 17.76 -16 39 04.5          20.1 GUEK187I93
         K20K05F KC2020 05 27.01924815 28 19.99 -16 37 39.7          19.4 GUEK187I93
         K20K05F KC2020 05 27.02857915 28 24.86 -16 34 28.3          20.1 GUEK187I93
    
    Observer details:
    474 Mount John Observatory, Lake Tekapo.  Observers A. C. Gilmore, P. M.
        Kilmartin.  Measurer P. M. Kilmartin.  1.0-m f/7.7 reflector + CCD.
    G96 Mt. Lemmon Survey.  Observer D. Rankin.  Measurers E. J. Christensen, G.
        A. Farneth, D. C. Fuls, A. R. Gibbs, A. D. Grauer, H. Groeller, R. A.
        Kowalski, S. M. Larson, G. J. Leonard, T. A. Pruyne, D. Rankin, R. L.
        Seaman, F. C. Shelly, K. W. Wierzchos.  1.5-m reflector + 10K CCD.
    I52 Steward Observatory, Mt. Lemmon Station.  Observer D. C. Fuls.  Measurers
        E. J. Christensen, G. A. Farneth, D. C. Fuls, A. R. Gibbs, A. D. Grauer,
        H. Groeller, R. A. Kowalski, S. M. Larson, G. J. Leonard, T. A. Pruyne, D.
        Rankin, R. L. Seaman, F. C. Shelly, K. W. Wierzchos.  1.0-m reflector +
        CCD.
    I93 St Pardon de Conques.  Observer F. Losse.  0.40-m f/3.7 reflector + CCD.
    J95 Great Shefford.  Observer P. Birtwhistle.  0.41-m f/6.3 Schmidt-Cassegrain
        + CCD.
    L01 Visnjan Observatory, Tican.  Observer K. Korlevic.  1.0-m f/2.9 reflector
        + CCD.
    
    Orbital elements:
    2020 KF5                                                 Earth MOID = 0.0016 AU
    Epoch 2020 May 31.0 TT = JDT 2459000.5                  Pike
    M 334.94626              (2000.0)            P               Q
    n   0.55793963     Peri.   65.13261     +0.63945144     +0.76821887
    a   1.4613175      Node   244.65356     -0.71707675     +0.58153454
    e   0.4155203      Incl.    1.94584     -0.27731354     +0.26768891
    P   1.77           H   29.4           G   0.15           U   6
    Residuals in seconds of arc
    200526 G96  0.1-  0.2+    200526 I52  0.2+  0.1-    200526 L01  0.6-  0.2-
    200526 G96  0.2+  0.4+    200526 474  0.0   0.2+    200526 J95  0.3-  0.3-
    200526 G96  0.1+  0.3-    200526 474  0.0   0.0     200526 J95  0.2+  0.6+
    200526 G96  0.2-  0.2-    200526 474  0.0   0.1-    200527 I93  0.0   0.5-
    200526 I52  0.1+  0.5-    200526 474  0.6-  0.0     200527 I93  0.7+  0.6-
    200526 I52  0.3-  0.5+    200526 L01  0.5+  0.0     200527 I93  0.2-  0.3-
    200526 I52  0.4+  0.2-    200526 L01  0.2+  0.0
    
    Ephemeris:
    2020 KF5                 a,e,i = 1.46, 0.42, 2                   q = 0.8541
    Date    TT    R. A. (2000) Decl.     Delta      r    Elong.  Phase     V
    2020 04 27    15 09 06.3 -24 01 07   0.2113  1.2113   164.3    13.0    27.2
    ...
    2020 05 12    15 10 14.7 -24 10 51   0.1049  1.1145   173.8     5.6    25.2
    ...
    2020 05 20    15 11 25.0 -23 32 49   0.05324 1.0646   170.8     8.7    23.8
    ...
    2020 05 26    15 20 12.9 -19 53 29   0.01581 1.0286   167.8    12.0    21.2
    2020 05 27    15 28 19.3 -16 31 09   0.0096691.0227   167.8    12.1    20.1
    2020 05 28    16 01 05.3 -01 48 52   0.0037111.0169   159.8    20.1    18.3
    ...
    2020 06 03    03 03 59.6 +26 07 23   0.03398 0.9832    23.2   156.0    31.8
    ...
    2020 06 11    03 10 03.2 +24 40 45   0.08457 0.9424    29.1   148.4    32.0
    ...
    2020 06 26    03 22 47.3 +24 23 09   0.1854  0.8834    40.3   131.8    31.4
    
    M. P. C. Staff               (C) Copyright 2020 MPC           M.P.E.C. 2020-K187
    


    Read MPEC 2020-K186 Read MPEC 2020-K188


    MPEC number:

    Enter an MPEC number in one of the following forms:

    • 1997-B01 (the full form)
    • J97B01 (the packed version of the full form)
    • B01 (the abbreviated form)